Time,TemperatureF,DewpointF,PressureIn,WindDirection,WindDirectionDegrees,WindSpeedMPH,WindSpeedGustMPH,Humidity,HourlyPrecipIn,Conditions,Clouds,dailyrainin,SoftwareType,DateUTC
2013-05-21 00:03:00,61.0,61.0,30.06,ESE,120,0.0,0.0,100,0.00,,,0.02,,2013-05-21 04:03:00,
2013-05-21 00:13:00,61.0,61.0,30.06,ESE,120,0.0,0.0,100,0.00,,,0.02,,2013-05-21 04:13:00,
2013-05-21 00:23:00,61.0,61.0,30.06,ESE,120,0.0,0.0,100,0.00,,,0.02,,2013-05-21 04:23:00,
2013-05-21 00:33:00,61.0,61.0,30.06,ESE,120,0.0,0.0,100,0.00,,,0.02,,2013-05-21 04:33:00,
2013-05-21 00:42:00,61.0,61.0,30.06,ESE,120,0.0,0.0,100,0.00,,,0.02,,2013-05-21 04:42:00,
2013-05-21 00:53:00,61.0,61.0,30.06,ESE,120,0.0,0.0,100,0.00,,,0.02,,2013-05-21 04:53:00,
2013-05-21 01:02:00,61.0,61.0,30.06,ESE,120,0.0,0.0,100,0.00,,,0.02,,2013-05-21 05:02:00,
2013-05-21 01:12:00,61.0,61.0,30.06,ESE,120,0.0,0.0,100,0.00,,,0.02,,2013-05-21 05:12:00,
2013-05-21 01:22:00,61.0,61.0,30.06,ESE,120,0.0,0.0,100,0.00,,,0.02,,2013-05-21 05:22:00,
2013-05-21 01:32:00,61.0,61.0,30.06,ESE,121,0.0,1.0,100,0.00,,,0.02,,2013-05-21 05:32:00,
2013-05-21 01:42:00,61.0,61.0,30.06,ESE,121,0.0,1.0,100,0.00,,,0.02,,2013-05-21 05:42:00,
2013-05-21 01:52:00,61.0,61.0,30.06,ESE,121,0.0,1.0,100,0.00,,,0.02,,2013-05-21 05:52:00,
2013-05-21 02:02:00,61.0,61.0,30.06,ESE,121,0.0,1.0,100,0.00,,,0.02,,2013-05-21 06:02:00,
2013-05-21 03:01:00,60.0,60.0,30.02,SE,138,0.0,2.0,100,0.00,,,0.02,,2013-05-21 07:01:00,
2013-05-21 03:11:00,60.0,60.0,30.02,SE,138,0.0,2.0,100,0.00,,,0.02,,2013-05-21 07:11:00,
2013-05-21 03:22:00,60.0,60.0,30.02,SE,138,0.0,2.0,100,0.00,,,0.02,,2013-05-21 07:22:00,
2013-05-21 03:32:00,60.0,60.0,30.03,WNW,296,0.0,1.0,100,0.00,,,0.02,,2013-05-21 07:32:00,
2013-05-21 03:41:00,60.0,60.0,30.03,WNW,296,0.0,1.0,100,0.00,,,0.02,,2013-05-21 07:41:00,
2013-05-21 03:52:00,60.0,60.0,30.03,WNW,296,0.0,1.0,100,0.00,,,0.02,,2013-05-21 07:52:00,
2013-05-21 04:02:00,60.0,60.0,30.03,WNW,296,0.0,0.0,100,0.00,,,0.02,,2013-05-21 08:02:00,
2013-05-21 04:11:00,60.0,60.0,30.03,WNW,296,0.0,0.0,100,0.00,,,0.02,,2013-05-21 08:11:00,
2013-05-21 04:21:00,60.0,60.0,30.03,WNW,296,0.0,0.0,100,0.00,,,0.02,,2013-05-21 08:21:00,
2013-05-21 04:31:00,59.0,59.0,30.04,WNW,296,0.0,0.0,100,0.00,,,0.02,,2013-05-21 08:31:00,
2013-05-21 04:41:00,59.0,59.0,30.04,WNW,296,0.0,0.0,100,0.00,,,0.02,,2013-05-21 08:41:00,
2013-05-21 04:52:00,59.0,59.0,30.04,WNW,296,0.0,0.0,100,0.00,,,0.02,,2013-05-21 08:52:00,
2013-05-21 05:01:00,59.0,59.0,30.03,WNW,296,0.0,0.0,100,0.00,,,0.02,,2013-05-21 09:01:00,
2013-05-21 05:11:00,59.0,59.0,30.03,WNW,296,0.0,0.0,100,0.00,,,0.02,,2013-05-21 09:11:00,
2013-05-21 05:21:00,59.0,59.0,30.03,WNW,296,0.0,0.0,100,0.00,,,0.02,,2013-05-21 09:21:00,
2013-05-21 05:33:00,59.0,59.0,30.01,WNW,296,0.0,0.0,100,0.00,,,0.02,,2013-05-21 09:33:00,
2013-05-21 05:42:00,59.0,59.0,30.01,WNW,296,0.0,0.0,100,0.00,,,0.02,,2013-05-21 09:42:00,
2013-05-21 05:53:00,59.0,59.0,30.01,WNW,296,0.0,0.0,100,0.00,,,0.02,,2013-05-21 09:53:00,
2013-05-21 06:03:00,58.0,58.0,30.02,WNW,296,0.0,0.0,100,0.00,,,0.02,,2013-05-21 10:03:00,
2013-05-21 06:12:00,58.0,58.0,30.02,WNW,296,0.0,0.0,100,0.00,,,0.02,,2013-05-21 10:12:00,
2013-05-21 06:22:00,58.0,58.0,30.02,WNW,296,0.0,0.0,100,0.00,,,0.02,,2013-05-21 10:22:00,
2013-05-21 06:32:00,58.0,58.0,30.02,WNW,296,0.0,0.0,100,0.00,,,0.02,,2013-05-21 10:32:00,
2013-05-21 07:02:00,57.0,57.0,30.03,WNW,296,0.0,0.0,100,0.00,,,0.02,,2013-05-21 11:02:00,
2013-05-21 07:12:00,57.0,57.0,30.03,WNW,296,0.0,0.0,100,0.00,,,0.02,,2013-05-21 11:12:00,
2013-05-21 07:22:00,57.0,57.0,30.03,WNW,296,0.0,0.0,100,0.00,,,0.02,,2013-05-21 11:22:00,
2013-05-21 07:32:00,57.0,57.0,30.05,WNW,296,0.0,0.0,100,0.00,,,0.02,,2013-05-21 11:32:00,
2013-05-21 07:42:00,57.0,57.0,30.05,WNW,296,0.0,0.0,100,0.00,,,0.02,,2013-05-21 11:42:00,
2013-05-21 07:52:00,57.0,57.0,30.05,WNW,296,0.0,0.0,100,0.00,,,0.02,,2013-05-21 11:52:00,
2013-05-21 08:01:00,57.0,57.0,30.05,WNW,296,0.0,0.0,100,0.00,,,0.02,,2013-05-21 12:01:00,
2013-05-21 08:11:00,57.0,57.0,30.05,WNW,296,0.0,0.0,100,0.00,,,0.02,,2013-05-21 12:11:00,
2013-05-21 08:21:00,57.0,57.0,30.05,WNW,296,0.0,0.0,100,0.00,,,0.02,,2013-05-21 12:21:00,
2013-05-21 08:32:00,57.0,57.0,30.05,WNW,296,0.0,0.0,100,0.00,,,0.02,,2013-05-21 12:32:00,
2013-05-21 08:42:00,57.0,57.0,30.05,WNW,296,0.0,0.0,100,0.00,,,0.02,,2013-05-21 12:42:00,
2013-05-21 08:52:00,57.0,57.0,30.05,WNW,296,0.0,0.0,100,0.00,,,0.02,,2013-05-21 12:52:00,
2013-05-21 09:01:00,59.0,59.0,30.06,WNW,296,0.0,0.0,100,0.00,,,0.02,,2013-05-21 13:01:00,
2013-05-21 09:12:00,59.0,59.0,30.06,WNW,296,0.0,0.0,100,0.00,,,0.02,,2013-05-21 13:12:00,
2013-05-21 09:22:00,59.0,59.0,30.06,WNW,296,0.0,0.0,100,0.00,,,0.02,,2013-05-21 13:22:00,
2013-05-21 09:32:00,60.0,60.0,30.06,North,356,0.0,0.0,100,0.00,,,0.02,,2013-05-21 13:32:00,
2013-05-21 09:42:00,60.0,60.0,30.06,North,356,0.0,0.0,100,0.00,,,0.02,,2013-05-21 13:42:00,
2013-05-21 09:52:00,60.0,60.0,30.06,North,356,0.0,0.0,100,0.00,,,0.02,,2013-05-21 13:52:00,
2013-05-21 10:02:00,64.0,64.0,30.09,NNE,24,0.0,0.0,100,0.00,,,0.00,,2013-05-21 14:02:00,
2013-05-21 10:11:00,64.0,64.0,30.09,NNE,24,0.0,0.0,100,0.00,,,0.00,,2013-05-21 14:11:00,
2013-05-21 10:21:00,64.0,64.0,30.09,NNE,24,0.0,0.0,100,0.00,,,0.00,,2013-05-21 14:21:00,
2013-05-21 10:32:00,68.0,66.0,30.08,NNE,24,0.0,0.0,92,0.00,,,0.00,,2013-05-21 14:32:00,
2013-05-21 10:41:00,68.0,66.0,30.08,NNE,24,0.0,0.0,92,0.00,,,0.00,,2013-05-21 14:41:00,
2013-05-21 10:52:00,68.0,66.0,30.08,NNE,24,0.0,0.0,92,0.00,,,0.00,,2013-05-21 14:52:00,
2013-05-21 11:01:00,72.0,68.0,30.06,NNE,25,0.0,0.0,87,0.00,,,0.00,,2013-05-21 15:01:00,
2013-05-21 11:11:00,72.0,68.0,30.06,NNE,25,0.0,0.0,87,0.00,,,0.00,,2013-05-21 15:11:00,
2013-05-21 11:21:00,72.0,68.0,30.06,NNE,25,0.0,0.0,87,0.00,,,0.00,,2013-05-21 15:21:00,
2013-05-21 11:33:00,77.0,69.0,30.08,NNE,24,0.0,0.0,76,0.00,,,0.00,,2013-05-21 15:33:00,
2013-05-21 11:42:00,77.0,69.0,30.08,NNE,24,0.0,0.0,76,0.00,,,0.00,,2013-05-21 15:42:00,
2013-05-21 11:53:00,77.0,69.0,30.08,NNE,24,0.0,0.0,76,0.00,,,0.00,,2013-05-21 15:53:00,
2013-05-21 12:03:00,78.0,68.0,30.07,NNE,27,0.0,0.0,71,0.00,,,0.00,,2013-05-21 16:03:00,
2013-05-21 12:13:00,78.0,68.0,30.07,NNE,27,0.0,0.0,71,0.00,,,0.00,,2013-05-21 16:13:00,
2013-05-21 12:23:00,78.0,68.0,30.07,NNE,27,0.0,0.0,71,0.00,,,0.00,,2013-05-21 16:23:00,
2013-05-21 12:32:00,79.0,69.0,30.07,NNE,31,0.0,0.0,71,0.00,,,0.00,,2013-05-21 16:32:00,
2013-05-21 12:42:00,79.0,69.0,30.07,NNE,31,0.0,0.0,71,0.00,,,0.00,,2013-05-21 16:42:00,
2013-05-21 12:53:00,79.0,69.0,30.07,NNE,31,0.0,0.0,71,0.00,,,0.00,,2013-05-21 16:53:00,
2013-05-21 13:02:00,81.0,67.0,30.06,NNE,31,0.0,0.0,62,0.00,,,0.00,,2013-05-21 17:02:00,
2013-05-21 13:12:00,81.0,67.0,30.06,NNE,31,0.0,0.0,62,0.00,,,0.00,,2013-05-21 17:12:00,
2013-05-21 13:23:00,81.0,67.0,30.06,NNE,31,0.0,0.0,62,0.00,,,0.00,,2013-05-21 17:23:00,
2013-05-21 13:33:00,83.0,69.0,30.05,NNE,31,0.0,0.0,62,0.00,,,0.00,,2013-05-21 17:33:00,
2013-05-21 13:43:00,83.0,69.0,30.05,NNE,31,0.0,0.0,62,0.00,,,0.00,,2013-05-21 17:43:00,
2013-05-21 13:52:00,83.0,69.0,30.05,NNE,31,0.0,0.0,62,0.00,,,0.00,,2013-05-21 17:52:00,
2013-05-21 14:02:00,80.0,64.0,30.04,NNE,31,0.0,0.0,59,0.00,,,0.00,,2013-05-21 18:02:00,
2013-05-21 14:12:00,80.0,64.0,30.04,NNE,31,0.0,0.0,59,0.00,,,0.00,,2013-05-21 18:12:00,
2013-05-21 14:22:00,80.0,64.0,30.04,NNE,31,0.0,0.0,59,0.00,,,0.00,,2013-05-21 18:22:00,
2013-05-21 14:32:00,81.0,68.0,30.03,North,359,0.0,0.0,64,0.00,,,0.00,,2013-05-21 18:32:00,
2013-05-21 14:42:00,81.0,68.0,30.03,North,359,0.0,0.0,64,0.00,,,0.00,,2013-05-21 18:42:00,
2013-05-21 14:52:00,81.0,68.0,30.03,North,359,0.0,0.0,64,0.00,,,0.00,,2013-05-21 18:52:00,
2013-05-21 15:01:00,81.0,68.0,30.03,North,359,0.0,0.0,64,0.00,,,0.00,,2013-05-21 19:01:00,
2013-05-21 15:11:00,81.0,68.0,30.03,North,359,0.0,0.0,64,0.00,,,0.00,,2013-05-21 19:11:00,
2013-05-21 16:03:00,77.0,66.0,30.02,ESE,117,0.0,1.0,68,0.00,,,0.00,,2013-05-21 20:03:00,
2013-05-21 16:11:00,77.0,66.0,30.02,ESE,117,0.0,1.0,68,0.00,,,0.00,,2013-05-21 20:11:00,
2013-05-21 16:22:00,77.0,66.0,30.02,ESE,117,0.0,1.0,68,0.00,,,0.00,,2013-05-21 20:22:00,
2013-05-21 16:32:00,71.0,61.0,30.00,SSW,198,0.0,1.0,71,0.00,,,0.00,,2013-05-21 20:32:00,
2013-05-21 16:42:00,71.0,61.0,30.00,SSW,198,0.0,1.0,71,0.00,,,0.00,,2013-05-21 20:42:00,
2013-05-21 16:52:00,71.0,61.0,30.00,SSW,198,0.0,1.0,71,0.00,,,0.00,,2013-05-21 20:52:00,
2013-05-21 17:02:00,68.0,61.0,29.98,SE,128,0.0,0.0,77,0.00,,,0.00,,2013-05-21 21:02:00,
2013-05-21 17:11:00,68.0,61.0,29.98,SE,128,0.0,0.0,77,0.00,,,0.00,,2013-05-21 21:11:00,
2013-05-21 17:22:00,68.0,61.0,29.98,SE,128,0.0,0.0,77,0.00,,,0.00,,2013-05-21 21:22:00,
2013-05-21 17:33:00,67.0,60.0,29.99,ESE,102,0.0,0.0,79,0.00,,,0.00,,2013-05-21 21:33:00,
2013-05-21 17:43:00,67.0,60.0,29.99,ESE,102,0.0,0.0,79,0.00,,,0.00,,2013-05-21 21:43:00,
2013-05-21 17:54:00,67.0,60.0,29.99,ESE,102,0.0,0.0,79,0.00,,,0.00,,2013-05-21 21:54:00,
2013-05-21 18:02:00,67.0,61.0,29.98,SSE,167,0.0,0.0,82,0.00,,,0.00,,2013-05-21 22:02:00,
2013-05-21 18:12:00,67.0,61.0,29.98,SSE,167,0.0,0.0,82,0.00,,,0.00,,2013-05-21 22:12:00,
2013-05-21 18:23:00,67.0,61.0,29.98,SSE,167,0.0,0.0,82,0.00,,,0.00,,2013-05-21 22:23:00,
2013-05-21 18:33:00,67.0,62.0,29.98,SSE,167,0.0,0.0,83,0.00,,,0.00,,2013-05-21 22:33:00,
2013-05-21 18:42:00,67.0,62.0,29.98,SSE,167,0.0,0.0,83,0.00,,,0.00,,2013-05-21 22:42:00,
2013-05-21 18:53:00,67.0,62.0,29.98,SSE,167,0.0,0.0,83,0.00,,,0.00,,2013-05-21 22:53:00,
2013-05-21 19:02:00,66.0,62.0,29.96,SE,127,0.0,0.0,87,0.00,,,0.00,,2013-05-21 23:02:00,
2013-05-21 19:12:00,66.0,62.0,29.96,SE,127,0.0,0.0,87,0.00,,,0.00,,2013-05-21 23:12:00,
2013-05-21 19:22:00,66.0,62.0,29.96,SE,127,0.0,0.0,87,0.00,,,0.00,,2013-05-21 23:22:00,
2013-05-21 19:32:00,66.0,62.0,29.96,SE,127,0.0,0.0,87,0.00,,,0.00,,2013-05-21 23:32:00,
2013-05-21 20:32:00,65.0,62.0,30.00,ESE,119,0.0,0.0,91,0.00,,,0.00,,2013-05-22 00:32:00,
2013-05-21 20:42:00,65.0,62.0,30.00,ESE,119,0.0,0.0,91,0.00,,,0.00,,2013-05-22 00:42:00,
2013-05-21 20:52:00,65.0,62.0,30.00,ESE,119,0.0,0.0,91,0.00,,,0.00,,2013-05-22 00:52:00,
2013-05-21 21:01:00,64.0,62.0,30.00,ESE,119,0.0,0.0,93,0.00,,,0.00,,2013-05-22 01:01:00,
2013-05-21 21:11:00,64.0,62.0,30.00,ESE,119,0.0,0.0,93,0.00,,,0.00,,2013-05-22 01:11:00,
2013-05-21 21:22:00,64.0,62.0,30.00,ESE,119,0.0,0.0,93,0.00,,,0.00,,2013-05-22 01:22:00,
2013-05-21 21:32:00,63.0,61.0,30.01,SE,128,0.0,0.0,94,0.00,,,0.00,,2013-05-22 01:32:00,
2013-05-21 21:42:00,63.0,61.0,30.01,SE,128,0.0,0.0,94,0.00,,,0.00,,2013-05-22 01:42:00,
2013-05-21 21:52:00,63.0,61.0,30.01,SE,128,0.0,0.0,94,0.00,,,0.00,,2013-05-22 01:52:00,
2013-05-21 22:02:00,63.0,62.0,30.02,SE,128,0.0,0.0,95,0.00,,,0.00,,2013-05-22 02:02:00,
2013-05-21 22:11:00,63.0,62.0,30.02,SE,128,0.0,0.0,95,0.00,,,0.00,,2013-05-22 02:11:00,
2013-05-21 22:22:00,63.0,62.0,30.02,SE,128,0.0,0.0,95,0.00,,,0.00,,2013-05-22 02:22:00,
2013-05-21 22:32:00,63.0,62.0,30.00,SE,128,0.0,0.0,95,0.00,,,0.00,,2013-05-22 02:32:00,
2013-05-21 22:42:00,63.0,62.0,30.00,SE,128,0.0,0.0,95,0.00,,,0.00,,2013-05-22 02:42:00,
2013-05-21 22:52:00,63.0,62.0,30.00,SE,128,0.0,0.0,95,0.00,,,0.00,,2013-05-22 02:52:00,
2013-05-21 23:01:00,62.0,61.0,30.00,SE,128,0.0,0.0,97,0.00,,,0.00,,2013-05-22 03:01:00,
2013-05-21 23:11:00,62.0,61.0,30.00,SE,128,0.0,0.0,97,0.00,,,0.00,,2013-05-22 03:11:00,
2013-05-21 23:22:00,62.0,61.0,30.00,SE,128,0.0,0.0,97,0.00,,,0.00,,2013-05-22 03:22:00,
2013-05-21 23:33:00,62.0,61.0,30.02,SE,128,0.0,0.0,98,0.00,,,0.00,,2013-05-22 03:33:00,
2013-05-21 23:43:00,62.0,61.0,30.02,SE,128,0.0,0.0,98,0.00,,,0.00,,2013-05-22 03:43:00,
2013-05-21 23:53:00,62.0,61.0,30.02,SE,128,0.0,0.0,98,0.00,,,0.00,,2013-05-22 03:53:00,